When you browse on this site, cookies collect data to enhance your experience and personalize the content and advertising you see.
Visit our Privacy Policy to learn more. By continuing to use the site, you agree to this use of cookies and data.
  • In Schweiz
  • Länderverzeichnis
  • Für 7 Tage
  • Wassertemperatur
  • Satellitenkarten
  • Wetterkarte
  • Widgets
  • user-avatar
    Anmelden

    Stündliche Wetter Plesna

    Heute, 21 Februar, Donnerstag

    Zeit Temperatur Niederschläge Wind Luftdruck Luftfeuchtigkeit
    00:00 +1°C° 0 mm 6 m/S 737 mmHg 77%
    01:00 -1°C° 0 mm 6 m/S 737 mmHg 78%
    02:00 -1°C° 0 mm 6 m/S 738 mmHg 79%
    03:00 -2°C° 0 mm 6 m/S 738 mmHg 81%
    04:00 -2°C° 0 mm 6 m/S 738 mmHg 82%
    05:00 -3°C° 0 mm 6 m/S 738 mmHg 83%
    06:00 -3°C° 0 mm 6 m/S 739 mmHg 81%
    07:00 -3°C° 0 mm 6 m/S 739 mmHg 78%
    08:00 -4°C° 0 mm 6 m/S 739 mmHg 76%
    09:00 -3°C° 0 mm 6 m/S 739 mmHg 69%
    10:00 -2°C° 0 mm 7 m/S 740 mmHg 63%
    11:00 -1°C° 0 mm 7 m/S 740 mmHg 56%
    12:00 0°C° 0 mm 7 m/S 740 mmHg 57%
    13:00 0°C° 0 mm 7 m/S 740 mmHg 58%
    14:00 +2°C° 0 mm 7 m/S 739 mmHg 59%
    15:00 +2°C° 0 mm 6 m/S 739 mmHg 62%
    16:00 +1°C° 0 mm 5 m/S 739 mmHg 66%
    17:00 +1°C° 0 mm 4 m/S 739 mmHg 70%
    18:00 +2°C° 0.1 mm 3 m/S 739 mmHg 76%
    19:00 +1°C° 0.1 mm 3 m/S 739 mmHg 81%
    20:00 +2°C° 0.1 mm 2 m/S 739 mmHg 87%
    21:00 +2°C° 0.4 mm 2 m/S 739 mmHg 86%
    22:00 +1°C° 0.4 mm 2 m/S 739 mmHg 84%
    23:00 +1°C° 0.4 mm 2 m/S 739 mmHg 83%

    Morgen, 22 Februar, Freitag

    Zeit Temperatur Niederschläge Wind Luftdruck Luftfeuchtigkeit
    00:00 -1°C° 0.7 mm 3 m/S 739 mmHg 86%
    01:00 -2°C° 0.7 mm 3 m/S 738 mmHg 89%
    02:00 -4°C° 0.7 mm 3 m/S 738 mmHg 92%
    03:00 -4°C° 0.7 mm 3 m/S 738 mmHg 92%
    04:00 -5°C° 0.7 mm 4 m/S 738 mmHg 92%
    05:00 -5°C° 0.7 mm 4 m/S 738 mmHg 92%
    06:00 -7°C° 0.5 mm 4 m/S 738 mmHg 90%
    07:00 -7°C° 0.5 mm 5 m/S 739 mmHg 88%
    08:00 -7°C° 0.5 mm 5 m/S 739 mmHg 86%
    09:00 -7°C° 0.1 mm 5 m/S 740 mmHg 80%
    10:00 -8°C° 0.1 mm 6 m/S 741 mmHg 73%
    11:00 -8°C° 0.1 mm 6 m/S 742 mmHg 67%
    12:00 -8°C° 0 mm 6 m/S 743 mmHg 64%
    13:00 -8°C° 0 mm 6 m/S 743 mmHg 62%
    14:00 -8°C° 0 mm 6 m/S 744 mmHg 59%
    15:00 -8°C° 0 mm 5 m/S 744 mmHg 60%
    16:00 -8°C° 0 mm 5 m/S 745 mmHg 61%
    17:00 -10°C° 0 mm 5 m/S 745 mmHg 62%
    18:00 -10°C° 0 mm 5 m/S 746 mmHg 65%
    19:00 -11°C° 0 mm 5 m/S 746 mmHg 67%
    20:00 -10°C° 0 mm 4 m/S 747 mmHg 69%
    21:00 -10°C° 0 mm 4 m/S 747 mmHg 70%
    22:00 -11°C° 0 mm 4 m/S 747 mmHg 70%
    23:00 -11°C° 0 mm 4 m/S 748 mmHg 71%

    übermorgen, 23 Februar, Samstag

    Zeit Temperatur Niederschläge Wind Luftdruck Luftfeuchtigkeit
    00:00 -11°C° 0 mm 4 m/S 748 mmHg 71%
    01:00 -11°C° 0 mm 4 m/S 748 mmHg 71%
    02:00 -11°C° 0 mm 4 m/S 749 mmHg 71%
    03:00 -11°C° 0 mm 4 m/S 749 mmHg 72%
    04:00 -11°C° 0 mm 4 m/S 749 mmHg 72%
    05:00 -11°C° 0 mm 4 m/S 749 mmHg 73%
    06:00 -12°C° 0 mm 5 m/S 750 mmHg 73%
    07:00 -12°C° 0 mm 5 m/S 750 mmHg 74%
    08:00 -12°C° 0 mm 5 m/S 751 mmHg 74%
    09:00 -12°C° 0 mm 5 m/S 751 mmHg 71%
    10:00 -11°C° 0 mm 5 m/S 751 mmHg 68%
    11:00 -10°C° 0 mm 5 m/S 752 mmHg 64%
    12:00 -10°C° 0 mm 5 m/S 752 mmHg 64%
    13:00 -10°C° 0 mm 5 m/S 752 mmHg 63%
    14:00 -8°C° 0 mm 5 m/S 752 mmHg 62%
    15:00 -8°C° 0 mm 5 m/S 752 mmHg 64%
    16:00 -9°C° 0 mm 4 m/S 751 mmHg 66%
    17:00 -8°C° 0 mm 3 m/S 751 mmHg 67%
    18:00 -8°C° 0 mm 3 m/S 751 mmHg 69%
    19:00 -9°C° 0 mm 3 m/S 752 mmHg 71%
    20:00 -9°C° 0 mm 3 m/S 752 mmHg 72%
    21:00 -9°C° 0 mm 3 m/S 752 mmHg 73%
    22:00 -9°C° 0 mm 3 m/S 752 mmHg 73%
    23:00 -9°C° 0 mm 3 m/S 752 mmHg 73%

    24 Februar, Sonntag

    Zeit Temperatur Niederschläge Wind Luftdruck Luftfeuchtigkeit
    00:00 -9°C° 0 mm 2 m/S 752 mmHg 75%
    01:00 -9°C° 0 mm 2 m/S 751 mmHg 76%
    02:00 -9°C° 0 mm 2 m/S 751 mmHg 77%
    03:00 -10°C° 0 mm 2 m/S 751 mmHg 78%
    04:00 -10°C° 0 mm 2 m/S 751 mmHg 79%
    05:00 -10°C° 0 mm 2 m/S 751 mmHg 79%
    06:00 -9°C° 0 mm 2 m/S 751 mmHg 77%
    07:00 -9°C° 0 mm 2 m/S 751 mmHg 75%
    08:00 -8°C° 0 mm 2 m/S 751 mmHg 73%
    09:00 -8°C° 0 mm 3 m/S 751 mmHg 68%
    10:00 -7°C° 0 mm 3 m/S 750 mmHg 63%
    11:00 -6°C° 0 mm 3 m/S 750 mmHg 58%
    12:00 -5°C° 0 mm 3 m/S 750 mmHg 61%
    13:00 -5°C° 0 mm 3 m/S 749 mmHg 63%
    14:00 -5°C° 0 mm 4 m/S 749 mmHg 66%
    15:00 -5°C° 0 mm 4 m/S 748 mmHg 69%
    16:00 -5°C° 0 mm 4 m/S 748 mmHg 73%
    17:00 -5°C° 0 mm 4 m/S 748 mmHg 77%
    18:00 -5°C° 0 mm 3 m/S 747 mmHg 76%
    19:00 -5°C° 0 mm 3 m/S 747 mmHg 76%
    20:00 -5°C° 0 mm 3 m/S 747 mmHg 75%
    21:00 -5°C° 0 mm 3 m/S 746 mmHg 75%
    22:00 -4°C° 0 mm 2 m/S 746 mmHg 75%
    23:00 -4°C° 0 mm 2 m/S 746 mmHg 75%

    25 Februar, Montag

    Zeit Temperatur Niederschläge Wind Luftdruck Luftfeuchtigkeit
    00:00 -4°C° 0 mm 2 m/S 745 mmHg 77%
    01:00 -5°C° 0 mm 2 m/S 745 mmHg 79%
    02:00 -5°C° 0 mm 2 m/S 744 mmHg 81%
    03:00 -5°C° 0 mm 2 m/S 744 mmHg 81%
    04:00 -5°C° 0 mm 2 m/S 743 mmHg 82%
    05:00 -4°C° 0 mm 2 m/S 743 mmHg 83%
    06:00 -4°C° 0.2 mm 2 m/S 742 mmHg 86%
    07:00 -4°C° 0.2 mm 2 m/S 742 mmHg 90%
    08:00 -3°C° 0.2 mm 2 m/S 742 mmHg 94%
    09:00 -4°C° 0.4 mm 3 m/S 742 mmHg 94%
    10:00 -2°C° 0.4 mm 3 m/S 742 mmHg 94%
    11:00 -3°C° 0.4 mm 4 m/S 742 mmHg 93%
    12:00 -2°C° 0.2 mm 5 m/S 742 mmHg 92%
    13:00 -2°C° 0.2 mm 6 m/S 742 mmHg 92%
    14:00 -2°C° 0.2 mm 7 m/S 742 mmHg 91%
    15:00 -2°C° 0 mm 6 m/S 742 mmHg 88%
    16:00 -2°C° 0 mm 6 m/S 742 mmHg 85%
    17:00 -2°C° 0 mm 6 m/S 742 mmHg 82%
    18:00 -3°C° 0 mm 6 m/S 742 mmHg 82%
    19:00 -3°C° 0 mm 6 m/S 743 mmHg 82%
    20:00 -4°C° 0 mm 5 m/S 743 mmHg 81%
    21:00 -4°C° 0 mm 5 m/S 743 mmHg 82%
    22:00 -4°C° 0 mm 5 m/S 744 mmHg 82%
    23:00 -4°C° 0 mm 5 m/S 744 mmHg 83%

    26 Februar, Dienstag

    Zeit Temperatur Niederschläge Wind Luftdruck Luftfeuchtigkeit
    00:00 -4°C° 0 mm 5 m/S 743 mmHg 85%
    01:00 -4°C° 0 mm 5 m/S 743 mmHg 87%
    02:00 -5°C° 0 mm 5 m/S 743 mmHg 88%
    03:00 -5°C° 0 mm 5 m/S 742 mmHg 89%
    04:00 -5°C° 0 mm 5 m/S 742 mmHg 90%
    05:00 -5°C° 0 mm 5 m/S 741 mmHg 91%
    06:00 -5°C° 0 mm 5 m/S 741 mmHg 91%
    07:00 -5°C° 0 mm 5 m/S 740 mmHg 90%
    08:00 -5°C° 0 mm 5 m/S 740 mmHg 89%
    09:00 -4°C° 0 mm 5 m/S 740 mmHg 88%
    10:00 -4°C° 0 mm 5 m/S 739 mmHg 87%
    11:00 -2°C° 0 mm 5 m/S 739 mmHg 86%
    12:00 -1°C° 0 mm 5 m/S 738 mmHg 86%
    13:00 -1°C° 0 mm 5 m/S 738 mmHg 85%
    14:00 -2°C° 0 mm 6 m/S 737 mmHg 85%
    15:00 -2°C° 0 mm 6 m/S 737 mmHg 85%
    16:00 -2°C° 0 mm 6 m/S 737 mmHg 86%
    17:00 -2°C° 0 mm 6 m/S 736 mmHg 86%
    18:00 -2°C° 0 mm 6 m/S 735 mmHg 87%
    19:00 -2°C° 0 mm 6 m/S 735 mmHg 89%
    20:00 -2°C° 0 mm 7 m/S 734 mmHg 90%
    21:00 -2°C° 0.1 mm 7 m/S 733 mmHg 90%
    22:00 -1°C° 0.1 mm 7 m/S 733 mmHg 91%
    23:00 -1°C° 0.1 mm 8 m/S 732 mmHg 91%
    Mehr zeigen